User: anonymous   Login
Location: Unspecified
(0.0000°N, 0.0000°E)
Time: 08:00:57
(UTC+00:00)
Language:

XIAOXIANG 2 - Orbit

View from above orbital plane
View from above orbital plane
View from above satellite
View from above satellite

Ground track
Ground track

The orbit data is extracted from the following two-line orbital elements,

1 43155U 18008A   20223.81880097  .00000263  00000-0  19137-4 0  9991
2 43155  97.4435 291.5176 0016578 325.9004 100.4560 15.11695259141133
Epoch (UTC): 10 August 2020 19:39:04
Eccentricity: 0.0016578
inclination: 97.4435°
perigee height: 519 km
apogee height: 542 km
right ascension of ascending node: 291.5176°
argument of perigee: 325.9004°
revolutions per day: 15.11695259
mean anomaly at epoch: 100.4560°
orbit number at epoch: 14113

The dashed part of the orbit path shows where the satellite is in the earth's shadow,  

DLR